Fort Meade, MD

1:19 PM EDT on June 28, 2017 (GMT -0400)
Tipton

Weather History for KFME - January, 2014

Change the Weather History Date:

Sunday, January 26, 2014

  Actual Average (KBWI) Record (KBWI)
Temperature  
Mean Temperature 22 °F -  
Max Temperature 30 °F 43 °F 79 °F (1950)
Min Temperature 15 °F 25 °F 2 °F (1961)
Degree Days  
Heating Degree Days 42    
Moisture  
Dew Point 9 °F    
Average Humidity 53    
Maximum Humidity 86    
Minimum Humidity 32    
Precipitation  
Precipitation 0.00 in - - ()
Sea Level Pressure  
Sea Level Pressure 29.85 in    
Wind  
Wind Speed 7 mph (SW)    
Max Wind Speed 20 mph    
Max Gust Speed 25 mph    
Visibility 10 miles    
Events      
Averages and records for this station are not official NWS values.
T = Trace of Precipitation, MM = Missing Value Source: NWS Daily Summary

Daily Weather History Graph

Daily Weather History Graph

Search for Another Location

Airport or City:

Trip Planner

Search our weather history database for the weather conditions in past years. The results will help you decide how hot, cold, wet, or windy it might be!

Date:

Astronomy

Jan. 26, 2014 Rise Set
Actual Time 7:18 AM EST 5:21 PM EST
Civil Twilight 6:49 AM EST 5:49 PM EST
Nautical Twilight 6:17 AM EST 6:22 PM EST
Astronomical Twilight 5:46 AM EST 6:53 PM EST
Moon 2:53 AM EST (1/26) 1:08 PM EST (1/26)
Length of Visible Light 10h 59m
Length of Day
10h 02m
Waning Crescent, 24% of the Moon is Illuminated
Jan 26
Waning Crescent
Jan 30
New
Feb 6
First Quarter
Feb 14
Full
Feb 22
Last Quarter

Hourly Weather History & Observations

Time (EST) Temp. Windchill Dew Point Humidity Pressure Visibility Wind Dir Wind Speed Gust Speed Precip Events Conditions
12:09 AM 28.4 °F 18.0 °F 14.0 °F 55% 29.67 in 10.0 mi West 12.7 mph 25.3 mph N/A   Clear
12:30 AM 28.4 °F 15.4 °F 15.8 °F 59% 29.68 in 10.0 mi WNW 19.6 mph 25.3 mph N/A   Clear
12:51 AM 26.6 °F 15.2 °F 15.8 °F 64% 29.71 in 10.0 mi WNW 13.8 mph 25.3 mph N/A   Clear
1:09 AM 26.6 °F 17.5 °F 14.0 °F 59% 29.73 in 10.0 mi NW 9.2 mph - N/A   Mostly Cloudy
1:30 AM 26.6 °F 15.7 °F 12.2 °F 55% 29.74 in 10.0 mi NW 12.7 mph 23.0 mph N/A   Mostly Cloudy
1:51 AM 24.8 °F 14.0 °F 10.4 °F 54% 29.75 in 10.0 mi WNW 11.5 mph 20.7 mph N/A   Scattered Clouds
2:09 AM 24.8 °F 15.3 °F 8.6 °F 50% 29.78 in 10.0 mi WNW 9.2 mph 17.3 mph N/A   Clear
2:30 AM 23.0 °F 13.1 °F 8.6 °F 54% 29.78 in 10.0 mi West 9.2 mph 16.1 mph N/A   Scattered Clouds
2:51 AM 23.0 °F 11.1 °F 10.4 °F 59% 29.79 in 10.0 mi NW 12.7 mph 18.4 mph N/A   Scattered Clouds
3:09 AM 23.0 °F 17.0 °F 10.4 °F 59% 29.80 in 10.0 mi West 4.6 mph - N/A   Scattered Clouds
3:30 AM 23.0 °F 15.8 °F 10.4 °F 59% 29.81 in 10.0 mi NW 5.8 mph - N/A   Scattered Clouds
3:51 AM 23.0 °F 14.7 °F 8.6 °F 54% 29.82 in 10.0 mi West 6.9 mph - N/A   Scattered Clouds
4:09 AM 21.2 °F 12.6 °F 8.6 °F 58% 29.82 in 10.0 mi WNW 6.9 mph - N/A   Scattered Clouds
4:30 AM 21.2 °F 14.9 °F 5.0 °F 50% 29.84 in 10.0 mi NW 4.6 mph - N/A   Clear
4:51 AM 19.4 °F 11.5 °F 5.0 °F 54% 29.85 in 10.0 mi NW 5.8 mph - N/A   Clear
5:09 AM 19.4 °F 11.5 °F 3.2 °F 49% 29.86 in 10.0 mi WNW 5.8 mph - N/A   Clear
5:30 AM 19.4 °F 11.5 °F 5.0 °F 54% 29.91 in 10.0 mi West 5.8 mph - N/A   Scattered Clouds
5:51 AM 19.4 °F 14.3 °F 5.0 °F 54% 29.92 in 10.0 mi NW 3.5 mph - N/A   Mostly Cloudy
6:09 AM 17.6 °F 10.7 °F 5.0 °F 58% 29.92 in 10.0 mi West 4.6 mph - N/A   Mostly Cloudy
6:30 AM 17.6 °F - 5.0 °F 58% 29.92 in 10.0 mi Calm Calm - N/A   Scattered Clouds
6:51 AM 15.8 °F 4.2 °F 5.0 °F 62% 29.93 in 10.0 mi WNW 9.2 mph - N/A   Clear
7:09 AM 17.6 °F 10.7 °F 6.8 °F 63% 29.95 in 10.0 mi South 4.6 mph - N/A   Clear
7:30 AM 15.8 °F - 5.0 °F 62% 29.95 in 10.0 mi Calm Calm - N/A   Clear
7:51 AM 15.8 °F 10.2 °F 5.0 °F 62% 29.95 in 10.0 mi SW 3.5 mph - N/A   Clear
8:09 AM 15.8 °F 10.2 °F 5.0 °F 62% 29.95 in 10.0 mi WNW 3.5 mph - N/A   Clear
8:30 AM 19.4 °F - 3.2 °F 49% 29.95 in 10.0 mi Calm Calm - N/A   Clear
8:51 AM 21.2 °F - 3.2 °F 46% 29.95 in 10.0 mi Calm Calm - N/A   Clear
9:12 AM 23.0 °F 18.4 °F 1.4 °F 39% 29.95 in 10.0 mi WNW 3.5 mph - N/A   Clear
9:30 AM 23.0 °F 14.7 °F 3.2 °F 43% 29.95 in 10.0 mi West 6.9 mph - N/A   Clear
9:51 AM 24.8 °F 20.5 °F 1.4 °F 36% 29.95 in 10.0 mi NNW 3.5 mph - N/A   Clear
10:12 AM 24.8 °F 20.5 °F 1.4 °F 36% 29.95 in 10.0 mi WNW 3.5 mph - N/A   Clear
10:30 AM 24.8 °F - 1.4 °F 36% 29.94 in 10.0 mi Calm Calm - N/A   Clear
10:51 AM 26.6 °F - 3.2 °F 37% 29.93 in 10.0 mi Calm Calm - N/A   Clear
11:12 AM 28.4 °F 23.3 °F 3.2 °F 34% 29.93 in 10.0 mi SSW 4.6 mph - N/A   Clear
11:30 AM 30.2 °F 23.4 °F 3.2 °F 32% 29.92 in 10.0 mi South 6.9 mph - N/A   Clear
11:51 AM 30.2 °F 22.6 °F 3.2 °F 32% 29.91 in 10.0 mi SSW 8.1 mph - N/A   Clear
12:12 PM 30.2 °F 21.9 °F 3.2 °F 32% 29.90 in 10.0 mi SSE 9.2 mph - N/A   Scattered Clouds
12:30 PM 30.2 °F 22.6 °F 3.2 °F 32% 29.89 in 10.0 mi SSW 8.1 mph - N/A   Mostly Cloudy
12:51 PM 30.2 °F 23.4 °F 3.2 °F 32% 29.88 in 10.0 mi South 6.9 mph - N/A   Overcast
1:12 PM 30.2 °F 22.6 °F 5.0 °F 34% 29.88 in 10.0 mi South 8.1 mph - N/A   Overcast
1:30 PM 28.4 °F 23.3 °F 5.0 °F 37% 29.88 in 10.0 mi South 4.6 mph - N/A   Overcast
1:51 PM 30.2 °F - 5.0 °F 34% 29.89 in 10.0 mi Calm Calm - N/A   Overcast
2:12 PM 30.2 °F 25.4 °F 6.8 °F 37% 29.89 in 10.0 mi SE 4.6 mph - N/A   Overcast
2:30 PM 28.4 °F 21.2 °F 8.6 °F 43% 29.88 in 10.0 mi SE 6.9 mph - N/A   Overcast
2:51 PM 28.4 °F 19.7 °F 8.6 °F 43% 29.86 in 10.0 mi ESE 9.2 mph - N/A   Overcast
3:12 PM 30.2 °F 22.6 °F 10.4 °F 44% 29.85 in 10.0 mi SE 8.1 mph - N/A   Mostly Cloudy
3:30 PM 30.2 °F 24.3 °F 12.2 °F 47% 29.85 in 10.0 mi SE 5.8 mph - N/A   Overcast
3:51 PM 30.2 °F 23.4 °F 10.4 °F 44% 29.84 in 10.0 mi SE 6.9 mph - N/A   Overcast
4:12 PM 30.2 °F 25.4 °F 10.4 °F 44% 29.83 in 10.0 mi SSE 4.6 mph - N/A   Overcast
4:30 PM 30.2 °F 24.3 °F 10.4 °F 44% 29.83 in 10.0 mi SSE 5.8 mph - N/A   Overcast
4:51 PM 30.2 °F 26.7 °F 10.4 °F 44% 29.84 in 10.0 mi SSE 3.5 mph - N/A   Overcast
5:12 PM 30.2 °F - 10.4 °F 44% 29.84 in 10.0 mi Calm Calm - N/A   Overcast
5:33 PM 30.2 °F 26.7 °F 10.4 °F 44% 29.84 in 10.0 mi SE 3.5 mph - N/A   Overcast
5:51 PM 30.2 °F 26.7 °F 12.2 °F 47% 29.84 in 10.0 mi SE 3.5 mph - N/A   Overcast
6:12 PM 30.2 °F 26.7 °F 12.2 °F 47% 29.84 in 10.0 mi SE 3.5 mph - N/A   Overcast
6:33 PM 30.2 °F 24.3 °F 15.8 °F 55% 29.83 in 10.0 mi SE 5.8 mph - N/A   Overcast
6:51 PM 30.2 °F 25.4 °F 17.6 °F 60% 29.83 in 10.0 mi SE 4.6 mph - N/A   Overcast
7:12 PM 30.2 °F - 17.6 °F 60% 29.83 in 10.0 mi Calm Calm - N/A   Mostly Cloudy
7:33 PM 28.4 °F - 17.6 °F 64% 29.82 in 10.0 mi Calm Calm - N/A   Overcast
7:51 PM 28.4 °F - 17.6 °F 64% 29.82 in 10.0 mi Calm Calm - N/A   Overcast
8:12 PM 28.4 °F - 17.6 °F 64% 29.82 in 10.0 mi Calm Calm - N/A   Overcast
8:33 PM 26.6 °F - 17.6 °F 69% 29.82 in 10.0 mi Calm Calm - N/A   Overcast
8:51 PM 26.6 °F - 17.6 °F 69% 29.82 in 10.0 mi Calm Calm - N/A   Mostly Cloudy
9:12 PM 23.0 °F - 15.8 °F 74% 29.81 in 10.0 mi Calm Calm - N/A   Scattered Clouds
9:33 PM 23.0 °F - 15.8 °F 74% 29.81 in 10.0 mi Calm Calm - N/A   Clear
9:51 PM 23.0 °F - 15.8 °F 74% 29.81 in 10.0 mi Calm Calm - N/A   Clear
10:12 PM 21.2 °F - 15.8 °F 80% 29.80 in 10.0 mi Calm Calm - N/A   Clear
10:33 PM 21.2 °F - 14.0 °F 74% 29.80 in 10.0 mi Calm Calm - N/A   Clear
10:51 PM 19.4 °F - 14.0 °F 80% 29.80 in 10.0 mi Calm Calm - N/A   Clear
11:12 PM 21.2 °F - 15.8 °F 80% 29.79 in 10.0 mi Calm Calm - N/A   Clear
11:33 PM 19.4 °F - 15.8 °F 86% 29.77 in 10.0 mi Calm Calm - N/A   Clear
11:51 PM 19.4 °F 14.3 °F 15.8 °F 86% 29.76 in 10.0 mi South 3.5 mph - N/A   Clear